Location: Borowce
(50.8255°N, 19.6209°E)
Time: 17:21:46
(UTC+00:00)

USA 229 DEB - Pass Details

Date: 19 May 2025
Orbit: 872 x 1339 km, 63.4° (Epoch: 17 June)

Event Time Altitude Azimuth Distance (km) Brightness Sun altitude
Exits shadow 23:20:43 18° 236° (SW) 2,133 4.9 -18.6°
Maximum altitude 23:25:27 71° 318° (NW) 1,061 3.7 -18.4°
Drops below altitude 10° 23:32:24 10° 43° (NE) 2,963 6.9 -18.2°
Sets 23:35:15 0° 46° (NE) 3,997 7.7 -18.1°
